User: anonymous   Login
Location: Unspecified
(0.0000°N, 0.0000°E)
Time: 20:48:36
(UTC+00:00)
Language:

Kosmos-1553 - Orbit

View from above orbital plane
View from above orbital plane
View from above satellite
View from above satellite

Ground track
Ground track

The orbit data is extracted from the following two-line orbital elements,

1 14973U 84046A   18141.49081720  .00000054  00000-0  40749-4 0  9999
2 14973  82.9353 280.0915 0031382 221.6321 202.9594 13.75321511706648
Epoch (UTC): 21 May 2018 11:46:46
Eccentricity: 0.0031382
inclination: 82.9353°
perigee height: 957 km
apogee height: 1003 km
right ascension of ascending node: 280.0915°
argument of perigee: 221.6321°
revolutions per day: 13.75321511
mean anomaly at epoch: 202.9594°
orbit number at epoch: 70664

The dashed part of the orbit path shows where the satellite is in the earth's shadow,  

DLR